Showing default

IRIDIUM 160, 43569

Orbit data source: Space-Track

IRIDIUM 160, 43569 is a payload satellite owned by Iridium (US) in LEO that was launched on Wed, 25 Jul 2018 UTC via an FALCON 9 launch vehicle from the Air Force Western Test Range (AFWTR). Payload-class satellites include a variety of spacecraft equipped with specific instruments for various scientific and technological missions. These include communications satellites like Starlink; space stations such as the ISS; scientific satellites like the Hubble; Earth observation satellites from companies like Planet Labs, Umbra, and HawkEye 360; GPS; miniature CubeSats for education and research; and military/defense satellites.

Loading next visibility...
Identifier
43569, 2018-061A
Orbit
LEO
Country
Flag of USUS
Related business
Manufacturer
NGIS SSG Gilbert
Mission
Operational Commercial Communications
Bus & Motor
ELITEBUS, Unknown motor
Mass
860 kg wet, 700 kg dry
Launch date (UTC)
2018-07-25 (8 years ago)
Launch vehicle
FALCON 9
Launch site
Air Force Western Test Range (AFWTR)
Object type
Payload
Rocket body
Debris
Shape & HBR
Trap Box + 2 Pan, 4.8 m
Radar Cross Section
10.154 m², Large (>1 m²)

Expand to show TLE details & history
Last TLE update: 4 hours ago

TLE from 4 hours ago
0 IRIDIUM 160
1 43569U 18061A   26034.17456719  .00000308  00000-0  10307-3 0  9993
2 43569  86.3974 112.8519 0002220 100.5255 259.6191 14.34217952394161
Epoch: 2026-02-03T04:11Z
TLE epoch observation values (Epoch: 2026-02-03T04:11:22.605Z)
Latitude
-0.00001°
Longitude
-83.35157°
Altitude
781.004 km
Speed
7.463 km/s
True Right ascension
07h 31m 24s
True Declination
0° 00' 00"
Sunlit
Object was in full shadow at epoch
Visualization orbit readout
Latitude
Unknown
Longitude
Unknown
Altitude
Unknown
Speed
Unknown
Apparent Right ascension
Unknown
Apparent Declination
Unknown
Sunlit
N/A
Visualization observer readout
Local Sidereal Time
10:00:23
Azimuth
Unknown
Elevation
Unknown
Doppler factor
Unknown
Orbital elements
Apogee altitude
776.219 km
Perigee altitude
773.043 km
Semi-major axis
7,152.768 km
Eccentricity
0.00022
Inclination
86.3974°
RAAN
112.8519°
Arg. of periapsis
100.5255°
True anomaly
259.59408°
Mean anomaly
259.6191°
Eccentric anomaly
259.60659°
Mean motion
3.58783 °/min
Orbital period
100.34 mins
BSTAR
0.00010307
Loading maneuver chart data...
Computing Atmospheric mass density...
Loading historical data...
Loading historical data...
Loading historical data...
Loading historical data...
Loading historical data...
Loading historical data...
Loading historical data...

Documentation

Showing up to 5 results
|